Dewpoint
10 9 10 9 10 11 12 12 13 12 10 9 9 5 4 6 8 9 15 15 15 15 14 15 14 14 14 15 15 15 15 15 14 12 11 11 11 8 8 9 7 8 8
10 10 9 9 10 11 11 12 13 14 10 11 9 10 11 13 15 14 14 15 14 13 12 12 13 15 15 14 15 15 15 15 12 10 11 11 11 9 8 7 7 9 9
10 10 9 10 10 10 11 11 12 13 10 13 15 15 15 15 15 15 15 14 14 12 12 13 15 15 15 15 15 14 16 15 11 11 9 11 11 10 9 9 8 8 8
9 10 9 10 10 10 10 11 12 13 11 15 15 15 14 15 15 15 15 13 13 15 15 16 15 15 15 15 14 14 15 14 10 12 10 10 11 10 9 7 7 9 8
9 9 9 9 10 10 10 11 12 13 13 14 15 15 14 15 14 13 13 15 15 15 15 14 15 16 16 15 14 15 15 12 10 11 11 10 10 9 9 9 10 8 8
9 9 9 10 10 11 12 12 13 12 14 15 15 14 14 13 13 14 15 15 15 14 13 13 14 16 16 16 15 15 14 11 8 8 10 10 11 9 9 9 7 8 9
9 10 10 10 10 11 12 13 14 13 15 15 14 14 11 11 12 15 15 15 14 12 13 13 14 15 16 16 15 14 13 10 8 8 7 7 8 7 6 8 8 9 9
10 10 10 10 11 12 14 15 14 15 15 15 14 12 8 7 14 15 16 15 13 12 12 12 14 16 16 16 15 14 12 10 8 10 8 4 6 5 7 8 9 9 10
10 11 11 12 14 15 16 16 15 16 15 14 13 8 1 7 14 15 16 13 13 12 13 12 15 15 16 15 14 13 11 9 8 10 8 6 5 5 6 8 9 10 10
12 13 14 14 16 16 16 16 16 15 14 13 10 3 0 5 14 15 15 14 14 14 14 13 14 15 15 15 13 9 5 3 5 9 9 8 7 7 8 9 11 10 10
14 14 15 16 17 17 17 16 15 14 13 10 3 -1 3 5 8 13 15 15 14 14 14 14 14 15 15 14 11 11 6 3 5 9 10 9 8 9 8 8 9 11 11
15 15 16 17 17 17 16 15 14 13 10 4 0 2 5 8 9 9 12 11 8 14 14 15 14 15 13 12 13 13 4 3 6 5 8 10 9 9 9 8 8 8 9
16 16 16 16 16 15 14 13 12 7 4 5 4 5 5 4 3 3 8 11 9 14 14 14 14 13 14 14 13 11 4 3 3 2 4 6 8 7 7 7 7 8 7
15 16 15 15 14 12 10 6 3 2 3 2 1 1 -1 -3 -2 1 4 11 13 12 13 14 14 14 14 14 12 11 6 5 4 7 1 1 3 4 6 8 10 9 9
11 15 14 11 9 6 3 1 1 -0 1 -0 -2 -2 -3 -4 -5 -3 1 5 10 10 13 13 14 14 14 14 13 12 12 8 6 5 5 5 6 7 8 9 10 10 10
14 13 10 8 6 7 6 4 4 3 3 4 1 -2 -4 -5 -4 -4 -3 0 5 10 12 13 13 14 14 14 14 13 13 13 10 8 8 9 10 9 10 9 9 10 11
13 11 10 8 9 7 7 6 5 5 3 4 2 -3 -4 -3 -3 -3 -2 3 7 8 11 12 12 13 13 13 13 13 13 13 13 11 10 10 10 11 10 10 9 10 11
13 11 10 8 7 9 8 8 7 6 4 3 0 -2 -4 -3 -2 -1 -2 3 8 7 10 10 11 11 12 13 13 13 13 13 13 13 12 10 10 10 10 10 9 7 10
10 8 8 9 7 8 8 8 7 5 3 2 -0 -1 -1 -1 -2 0 -0 2 7 8 8 9 10 10 11 11 12 13 13 13 12 13 13 12 11 9 10 11 10 8 9
9 10 9 9 10 8 6 3 3 1 1 -1 -0 -0 -0 -2 0 0 0 1 3 5 6 6 9 9 10 10 11 11 12 12 12 12 12 12 12 12 10 10 11 9 8
9 9 9 8 4 4 6 6 -1 2 -1 -0 0 -2 -1 0 0 1 1 0 2 2 2 4 6 8 9 9 10 10 10 11 12 11 12 12 12 12 11 10 10 11 9
6 5 4 5 6 6 4 4 2 -2 -1 -1 -1 -0 1 2 2 3 2 2 3 3 3 4 3 5 6 8 8 8 9 10 11 11 11 11 12 12 12 12 12 11 11
8 7 7 6 5 4 2 -2 -1 -2 -2 -0 1 2 1 2 2 3 3 3 3 3 4 4 4 4 4 5 6 7 7 9 9 10 11 11 11 11 12 11 12 12 11
6 5 5 2 -1 -2 -2 -2 -1 0 1 1 2 2 2 2 3 3 3 3 3 3 4 4 4 4 4 5 5 5 6 6 7 8 8 9 10 11 11 11 11 12 12
3 -0 -2 -2 -3 -3 -2 -1 -1 -1 -1 -0 0 0 1 2 2 2 2 3 3 3 3 3 3 3 3 3 4 4 5 5 5 6 6 7 8 9 10 11 11 11 12
-5 -6 -7 -7 -7 -6 -6 -4 -3 -1 -1 -1 -1 -0 -1 -1 -0 0 1 1 1 1 1 2 2 2 2 2 2 3 3 3 3 3 4 5 5 6 8 10 11 11 11
Wind_Speed
24 20 20 20 19 19 19 17 16 16 16 16 16 16 16 18 18 18 19 20 21 23 23 25 24 23 21 14 11 13 19 7 3 4 4 7 11 12 8 10 10 11 7
26 25 24 24 24 24 24 22 19 18 15 14 13 12 13 15 17 19 20 21 24 26 27 27 25 20 16 10 7 12 14 8 4 5 9 10 11 11 9 11 9 9 6
25 25 25 23 21 20 21 20 20 18 16 12 12 14 16 19 20 20 21 24 28 27 26 23 20 18 14 9 7 8 7 5 5 4 8 14 16 12 12 10 10 10 8
27 26 25 24 22 21 20 19 20 18 14 11 12 15 18 20 21 23 25 26 24 21 20 19 18 16 11 7 6 8 7 6 8 8 8 17 18 15 11 11 12 9 9
33 29 25 24 20 21 22 21 21 17 13 13 15 17 20 22 23 23 20 19 19 17 16 16 15 10 7 6 6 5 6 7 10 9 10 15 15 17 14 12 10 10 10
35 39 35 32 27 22 20 22 22 15 16 16 17 19 22 19 17 17 15 15 15 15 15 14 12 8 6 5 5 5 6 5 8 7 10 16 16 14 15 12 14 12 9
23 27 29 27 25 22 20 22 20 19 17 16 18 19 18 15 13 11 11 12 15 16 12 12 11 8 4 2 5 9 10 11 8 4 4 13 17 14 15 15 12 9 8
20 22 23 23 23 22 21 22 21 19 17 16 17 15 14 10 10 8 8 11 9 12 15 15 12 7 5 3 4 6 8 10 10 9 8 9 13 15 12 12 9 8 8
21 21 21 22 21 20 21 22 20 17 15 16 14 12 10 8 7 7 5 6 7 11 14 14 9 6 5 4 2 5 6 9 11 13 12 12 13 15 13 11 10 7 5
21 20 20 20 19 19 20 20 18 17 16 14 11 9 9 7 5 3 4 5 7 9 11 10 9 4 3 1 7 7 6 6 9 13 13 13 12 12 12 12 8 7 5
21 21 20 19 19 18 19 19 18 16 14 11 10 9 6 5 4 4 4 7 9 9 8 6 7 2 1 2 3 5 9 9 9 11 13 13 12 10 11 12 11 9 6
20 19 20 20 20 19 17 17 17 15 13 12 10 8 6 6 7 7 7 8 10 7 6 3 3 3 5 5 6 7 9 8 8 9 12 13 12 11 12 12 12 10 9
19 19 20 20 19 18 16 15 15 13 11 10 9 7 7 7 7 9 10 8 6 6 4 0 3 6 5 4 4 7 8 10 10 9 11 12 11 12 11 10 9 8 9
17 18 19 18 18 17 17 14 13 12 11 9 7 6 4 3 4 5 5 6 5 5 3 2 5 6 5 3 4 7 9 11 12 10 11 9 10 10 11 9 7 6 7
25 27 21 20 18 16 15 15 13 11 10 8 7 5 3 2 2 2 2 2 1 2 0 2 4 9 9 8 7 9 7 6 10 13 12 12 11 10 9 8 8 8 6
31 28 23 18 16 13 10 10 10 8 8 6 5 2 2 3 3 2 2 2 1 2 1 2 4 4 8 12 14 13 12 12 11 12 12 9 8 8 8 7 9 9 8
30 28 25 20 15 10 7 7 6 7 5 5 5 3 2 4 4 4 2 2 1 1 3 3 4 3 5 7 9 16 18 17 15 14 11 15 12 12 10 11 10 10 9
30 25 23 21 16 13 10 11 8 8 4 9 10 9 6 5 5 4 2 2 5 4 5 5 6 7 7 6 8 13 14 18 20 17 18 16 19 17 15 13 12 13 10
37 33 27 26 24 23 17 12 8 9 9 13 14 11 7 5 4 2 1 3 6 7 7 7 6 8 9 8 8 10 13 17 17 19 20 21 20 20 19 15 15 13 13
34 33 32 31 28 22 18 11 6 15 16 16 16 10 5 3 3 3 2 3 5 6 7 8 10 11 10 9 10 9 9 13 16 18 18 20 22 22 21 19 18 17 18
28 28 28 26 22 19 17 16 12 19 17 16 13 8 5 1 2 3 4 4 3 5 7 10 10 12 13 14 12 12 14 13 14 14 17 15 15 22 25 21 20 21 18
30 28 26 24 22 20 16 15 15 14 13 11 8 4 2 2 2 4 6 7 7 7 7 6 7 13 15 16 18 16 14 15 15 14 17 17 20 18 17 23 25 23 24
24 25 25 23 21 18 16 14 13 10 10 8 5 3 0 1 2 3 4 5 6 7 7 8 9 9 11 14 19 21 21 20 19 18 16 17 21 20 21 20 20 26 26
23 21 19 18 17 16 13 10 9 9 8 6 4 3 2 3 4 4 4 5 7 8 9 8 7 7 6 8 9 13 17 19 22 22 21 20 19 19 22 24 22 23 26
18 17 16 16 15 13 13 12 10 8 7 6 4 4 6 5 5 5 4 5 6 7 10 10 12 11 11 10 10 13 18 22 23 24 28 27 24 24 20 24 26 25 27
18 17 17 17 16 14 13 11 10 9 8 9 8 8 9 6 7 7 6 7 9 10 12 11 13 14 15 16 15 16 19 24 26 26 27 31 33 30 26 24 26 28 28
Wind_Direction
224 223 229 231 241 250 258 265 274 279 279 281 290 294 293 291 292 293 299 305 308 311 313 310 312 315 322 309 275 313 314 273 224 181 180 184 177 167 161 162 171 176 170
227 224 229 237 249 255 261 264 266 270 271 278 289 297 298 297 297 299 303 309 309 309 313 314 315 315 318 301 277 294 301 257 198 180 181 174 174 171 162 155 165 168 164
223 224 230 238 241 247 256 258 257 260 263 274 285 293 295 295 297 300 303 306 306 310 312 311 315 314 310 292 258 297 265 225 190 171 176 175 166 176 162 161 163 164 155
220 220 225 225 241 252 254 251 249 250 258 272 281 291 297 296 299 302 302 305 311 320 321 316 315 307 304 286 268 290 220 202 179 155 157 174 178 175 170 170 173 162 155
221 222 219 226 247 262 252 246 242 239 249 264 276 289 297 300 303 311 314 316 320 325 327 329 325 310 288 268 282 287 190 182 174 158 157 162 172 178 179 174 180 182 183
225 230 238 247 255 255 247 239 236 228 242 261 273 288 296 305 311 313 314 320 326 326 329 329 328 317 294 270 276 163 143 155 158 168 167 173 167 172 188 175 186 183 195
221 226 234 240 241 244 243 232 225 227 242 253 272 288 297 310 315 324 329 330 329 332 344 341 337 341 341 296 180 163 150 147 124 118 157 174 173 169 180 175 184 189 200
221 220 225 231 236 240 230 221 220 228 237 253 272 283 292 308 310 319 331 332 352 357 354 347 359 20 47 118 151 171 146 158 144 140 124 155 169 169 160 155 160 181 187
217 220 225 230 231 226 218 216 219 228 236 252 264 271 284 293 296 321 336 332 334 339 350 357 21 38 95 119 91 142 155 164 167 164 157 150 155 172 186 191 188 182 203
214 214 215 218 216 214 213 215 217 222 235 245 250 261 271 282 296 341 319 320 328 336 348 359 15 25 150 84 132 133 138 150 180 179 180 173 169 171 182 183 192 194 205
207 208 210 207 205 203 206 208 212 218 225 228 236 245 262 292 306 306 316 303 312 325 338 357 10 72 60 123 152 164 144 144 157 178 186 184 187 188 199 200 195 189 212
207 208 202 197 195 197 204 210 208 210 213 215 222 231 251 273 289 294 289 298 317 329 339 2 59 90 88 92 114 111 126 126 154 162 182 188 193 194 203 210 214 227 228
194 197 193 192 192 190 190 200 200 199 201 205 217 229 245 273 293 298 288 292 314 320 325 289 126 129 114 120 131 124 132 140 155 161 166 179 188 195 207 203 209 231 248
183 194 186 186 178 175 174 183 194 196 198 205 208 217 241 279 300 302 299 287 286 298 310 191 196 190 179 183 188 167 171 176 170 182 164 166 185 196 196 205 209 216 216
191 195 178 175 174 174 173 177 186 185 182 193 194 193 205 234 261 263 293 314 307 345 306 184 209 215 214 218 216 205 219 221 197 179 182 174 169 183 204 224 222 217 219
174 173 168 170 164 162 166 174 185 187 175 194 191 204 277 308 329 315 292 300 308 96 111 193 201 201 223 229 235 232 236 252 234 207 190 210 201 199 218 233 225 215 222
173 169 156 160 167 141 175 201 227 213 220 266 300 312 344 333 341 329 335 246 259 130 178 205 224 217 231 236 238 238 238 248 246 240 237 228 226 228 240 241 230 218 224
166 161 153 155 160 160 199 220 237 256 286 286 290 299 315 328 335 312 329 222 223 223 205 210 222 234 234 231 241 240 237 244 249 239 242 242 242 243 253 244 229 229 219
171 177 193 214 186 176 187 216 246 273 284 283 280 287 310 328 335 293 252 221 221 220 222 233 233 241 250 262 256 239 248 243 248 243 246 247 243 243 248 247 231 230 214
177 179 175 174 174 176 183 191 252 276 270 267 265 261 267 326 339 329 309 250 232 235 242 245 243 244 265 269 255 263 252 255 248 243 247 245 248 244 247 244 231 230 227
174 169 171 175 184 189 200 206 228 238 249 255 261 275 275 297 310 346 2 351 297 264 248 241 243 255 262 272 280 265 255 268 259 248 243 233 241 246 244 247 245 232 227
178 181 188 194 193 197 199 213 221 222 230 238 253 275 314 323 350 12 5 2 356 348 334 304 260 254 252 260 269 275 271 261 264 262 251 248 242 236 244 246 245 241 233
189 183 181 181 187 191 196 200 210 209 219 220 207 197 187 80 50 31 21 9 360 356 343 332 314 293 278 268 262 270 272 270 271 267 263 260 253 245 238 244 245 245 235
175 177 179 181 183 182 180 180 193 184 176 168 170 157 133 97 69 50 14 351 347 340 335 330 317 309 306 297 293 292 285 278 272 272 272 269 267 264 251 242 242 245 244
173 172 172 165 156 151 148 150 160 160 156 148 142 124 96 83 59 35 9 336 329 329 319 321 318 320 306 295 294 293 292 292 292 285 278 273 270 263 263 251 238 245 244
153 146 149 143 133 136 138 144 142 132 119 108 101 88 78 66 47 25 356 335 325 323 310 306 305 303 300 300 293 279 274 277 279 282 277 273 270 263 256 257 245 235 244
Height
1526 1530 1533 1536 1538 1541 1542 1543 1544 1544 1543 1542 1541 1540 1539 1537 1536 1534 1532 1530 1527 1525 1522 1518 1515 1512 1509 1507 1507 1506 1505 1505 1510 1512 1516 1516 1518 1520 1523 1524 1525 1528 1531
1521 1525 1528 1531 1533 1535 1537 1538 1539 1539 1539 1539 1539 1537 1536 1534 1532 1531 1529 1526 1523 1520 1517 1514 1510 1508 1506 1504 1505 1506 1505 1505 1508 1510 1512 1515 1517 1520 1523 1525 1527 1529 1531
1515 1519 1522 1525 1527 1529 1531 1533 1534 1534 1535 1536 1535 1534 1532 1530 1528 1527 1525 1522 1519 1516 1512 1509 1506 1504 1503 1502 1503 1502 1503 1505 1506 1509 1510 1513 1516 1520 1522 1525 1528 1529 1531
1508 1513 1516 1520 1522 1524 1526 1527 1527 1529 1531 1532 1531 1530 1528 1526 1524 1522 1520 1517 1514 1511 1508 1506 1503 1501 1500 1500 1501 1501 1501 1504 1506 1508 1509 1511 1516 1519 1523 1524 1527 1530 1531
1503 1507 1510 1514 1516 1518 1519 1521 1522 1525 1528 1528 1527 1527 1525 1522 1520 1517 1515 1513 1511 1508 1506 1502 1500 1498 1498 1498 1498 1498 1500 1502 1505 1506 1509 1511 1514 1517 1522 1525 1529 1529 1531
1495 1500 1505 1508 1511 1512 1514 1515 1518 1521 1523 1524 1524 1522 1520 1519 1517 1514 1511 1510 1508 1506 1503 1500 1498 1496 1496 1497 1496 1497 1500 1502 1504 1506 1508 1510 1513 1516 1520 1523 1525 1528 1531
1490 1494 1498 1502 1505 1507 1509 1511 1514 1516 1518 1519 1519 1518 1516 1515 1513 1511 1510 1508 1506 1504 1501 1499 1497 1495 1494 1495 1495 1497 1497 1502 1504 1506 1508 1509 1510 1515 1518 1520 1524 1527 1530
1485 1489 1493 1496 1499 1502 1504 1507 1510 1512 1514 1515 1514 1514 1513 1512 1511 1509 1508 1507 1505 1503 1501 1498 1495 1494 1494 1495 1495 1497 1499 1502 1504 1507 1508 1509 1512 1515 1519 1521 1524 1526 1529
1480 1484 1489 1492 1495 1498 1501 1504 1507 1509 1511 1511 1511 1510 1510 1509 1508 1507 1506 1506 1504 1503 1501 1498 1496 1495 1495 1495 1496 1497 1499 1502 1504 1506 1508 1510 1512 1515 1518 1521 1523 1525 1527
1475 1480 1484 1487 1490 1494 1498 1502 1504 1506 1508 1509 1509 1508 1507 1506 1505 1505 1505 1505 1504 1502 1500 1497 1495 1495 1495 1495 1496 1498 1500 1502 1503 1506 1509 1511 1513 1515 1517 1520 1524 1525 1526
1472 1476 1479 1482 1487 1491 1495 1498 1500 1503 1505 1506 1506 1506 1505 1504 1504 1503 1503 1502 1501 1500 1499 1497 1496 1496 1496 1496 1497 1497 1499 1501 1502 1506 1508 1511 1513 1515 1516 1518 1521 1525 1526
1470 1475 1478 1481 1484 1488 1493 1498 1499 1501 1502 1503 1504 1504 1505 1504 1503 1502 1501 1500 1499 1498 1498 1496 1495 1496 1497 1498 1497 1498 1499 1501 1504 1505 1507 1510 1512 1514 1515 1517 1518 1520 1522
1471 1475 1479 1482 1485 1487 1490 1498 1501 1502 1502 1503 1502 1503 1503 1502 1501 1500 1499 1498 1497 1497 1497 1497 1495 1496 1498 1499 1499 1499 1499 1500 1501 1502 1504 1507 1510 1512 1514 1516 1517 1518 1519
1467 1479 1480 1486 1486 1487 1488 1495 1499 1501 1502 1502 1502 1502 1501 1500 1499 1498 1497 1497 1496 1495 1494 1495 1495 1496 1497 1498 1500 1500 1500 1501 1500 1502 1500 1502 1507 1510 1513 1514 1516 1516 1518
1453 1477 1476 1484 1484 1488 1491 1494 1499 1500 1502 1502 1501 1501 1500 1498 1497 1496 1495 1495 1495 1495 1494 1494 1494 1495 1496 1498 1499 1500 1501 1501 1501 1500 1502 1501 1502 1507 1510 1512 1514 1515 1515
1462 1469 1473 1483 1482 1488 1494 1498 1501 1502 1501 1503 1501 1500 1499 1497 1495 1493 1491 1492 1493 1492 1494 1494 1494 1494 1495 1496 1498 1499 1499 1500 1501 1501 1502 1506 1505 1504 1507 1509 1510 1513 1513
1456 1462 1457 1468 1485 1483 1495 1502 1504 1503 1499 1502 1502 1499 1496 1496 1494 1492 1489 1490 1492 1491 1491 1493 1494 1493 1494 1493 1493 1494 1495 1497 1498 1499 1501 1503 1503 1505 1504 1505 1505 1508 1509
1450 1458 1462 1465 1470 1479 1492 1500 1502 1503 1495 1500 1500 1498 1493 1492 1492 1491 1487 1489 1490 1489 1489 1490 1491 1490 1489 1488 1489 1491 1490 1491 1493 1496 1498 1499 1500 1502 1503 1501 1502 1505 1508
1443 1448 1448 1458 1469 1469 1481 1494 1496 1498 1493 1496 1500 1496 1491 1489 1488 1489 1484 1485 1487 1486 1486 1487 1487 1486 1488 1489 1487 1486 1487 1488 1488 1490 1493 1494 1496 1498 1499 1499 1499 1501 1503
1444 1446 1450 1460 1466 1473 1477 1481 1486 1492 1493 1496 1498 1494 1489 1486 1486 1486 1483 1483 1483 1482 1483 1483 1483 1483 1485 1486 1485 1484 1483 1484 1484 1485 1487 1488 1490 1491 1493 1495 1496 1497 1499
1448 1452 1457 1463 1468 1472 1475 1477 1477 1488 1491 1494 1492 1488 1485 1483 1483 1482 1480 1478 1480 1479 1477 1477 1479 1481 1481 1482 1483 1482 1481 1481 1480 1479 1480 1482 1483 1485 1486 1488 1490 1493 1494
1450 1453 1458 1463 1465 1467 1469 1477 1481 1482 1486 1487 1486 1484 1481 1481 1480 1478 1478 1476 1478 1477 1476 1476 1473 1476 1474 1474 1478 1479 1478 1477 1476 1475 1476 1476 1477 1478 1480 1481 1484 1487 1488
1451 1453 1457 1460 1463 1466 1468 1472 1478 1477 1480 1482 1483 1481 1479 1477 1476 1476 1476 1476 1477 1474 1475 1475 1475 1472 1470 1469 1467 1471 1473 1472 1471 1471 1471 1471 1471 1471 1472 1474 1476 1479 1481
1453 1455 1458 1460 1463 1464 1465 1467 1473 1475 1478 1478 1480 1479 1475 1475 1474 1474 1475 1476 1475 1473 1473 1472 1472 1472 1469 1469 1464 1464 1466 1466 1466 1465 1464 1464 1464 1464 1465 1466 1468 1471 1473
1452 1455 1459 1460 1461 1461 1463 1467 1474 1476 1477 1477 1477 1477 1473 1473 1473 1471 1472 1475 1473 1469 1473 1469 1470 1467 1468 1465 1462 1460 1460 1460 1460 1460 1458 1458 1459 1459 1458 1459 1461 1463 1465
1453 1455 1460 1461 1459 1462 1464 1469 1472 1474 1475 1476 1476 1477 1473 1472 1470 1467 1470 1471 1471 1467 1468 1464 1464 1463 1462 1460 1456 1455 1455 1454 1452 1451 1451 1450 1449 1450 1452 1452 1452 1454 1455